{"data":{"norad_id":52629,"intl_designator":"2022-052AH","name":"STARLINK-4022","alt_names":[],"object_type":"PAYLOAD","status":"ACTIVE","operator":null,"country":"US","launch_date":"2022-05-14","launch_site_code":"AFETR","launch_vehicle":null,"mission":null,"orbit_class":"UNKNOWN","rcs_meters":null,"size_class":null,"mass_kg":null,"dimensions":null,"purposes":["comms"],"wikipedia_slug":null,"has_3d_model":false,"image_url":null,"decayed_at":null,"tle_current":{"epoch":"2026-09-20T04:31:12.902592Z","epoch_age_seconds":93404,"freshness":"FRESH","line1":"1 52629U 22052AH  26263.18834378  .00085356  00000+0  52181-2 0  9991","line2":"2 52629  53.1603 115.2749 0001494  70.6371 289.4782 15.09524450240354","mean_motion":15.0952445,"eccentricity":0.0001494,"inclination_deg":53.1603,"raan_deg":115.2749,"arg_perigee_deg":70.6371,"mean_anomaly_deg":289.4782,"bstar":0.0052181,"rev_number":24035,"period_min":95.394281291701,"perigee_km":536.61887078014,"apogee_km":538.68530856014,"semimajor_km":6915.7890896701,"source":"CELESTRAK","updated_at":"2026-09-20T09:00:40.095443Z"}}}